Location: *
(47.4000°N, 4.7167°E)
Time: 23:54:06
(UTC+00:00)

Daily predictions for brighter satellites

Satellite Brightness Start Highest point End
(mag) Time Altitude Azimuth Time Altitude Azimuth Time Altitude Azimuth
CZ-4C R/B 2.3 16:43:53 10° SSW 16:48:40 59° ESE 16:54:27 10° NE
COSMO-SKYMED 1 4.1 16:46:35 10° NE 16:49:35 18° E 16:52:32 10° SE
Okean O Rocket 1.8 16:46:09 10° SE 16:50:27 51° ENE 16:54:46 10° N
Cosmos 1536 Rocket 3.9 16:47:30 10° SSE 16:51:39 44° E 16:55:50 10° NNE
CORIOLIS 4.2 16:47:56 10° SSE 16:53:17 64° ENE 16:58:37 10° N
Tsikada Rocket 4.1 16:50:56 10° S 16:57:09 60° E 17:03:20 10° NNE
Cosmos 1943 3.7 16:53:41 10° NNW 16:59:00 39° NE 17:04:15 10° ESE
Cosmos 1300 3.8 16:55:57 10° NNE 16:59:03 23° ENE 17:02:07 10° SE
BREEZE-M DEB (TANK) 1.8 16:57:47 10° WSW 17:00:54 82° NNW 17:02:59 11° ENE
In-Cosmos 22 4.3 16:55:22 10° SSW 17:00:54 82° W 17:06:20 10° N
Landsat 5 3.3 16:57:38 10° NNE 17:01:42 86° ESE 17:05:35 10° SSW
H-2A R/B 3.3 16:59:37 10° E 17:02:57 18° ENE 17:06:21 10° NNE
NOAA 12 4.1 16:58:46 10° SSE 17:04:00 90° E 17:09:16 10° NNW
Cosmos 2219 4.4 16:59:02 10° WSW 17:04:26 41° NW 17:09:50 10° NNE
Cosmos 1908 3.1 17:01:03 10° N 17:04:55 79° E 17:08:47 10° SSE
MOS 1 Rocket 4.4 17:05:08 10° NE 17:08:23 20° E 17:11:33 10° SE
ARGOS 4.5 17:09:02 10° E 17:12:32 18° ENE 17:16:03 10° NNE
Cosmos 1544 Rocket 4.5 17:09:11 10° NNW 17:13:26 53° W 17:17:42 10° S
RESURS DK-1 2.9 17:09:48 10° S 17:13:40 40° ESE 17:17:31 10° NE
Cosmos 1025 Rocket 3.5 17:14:05 10° SSW 17:18:21 64° W 17:22:41 10° N
NOSS 3-4 (A) 3.6 17:12:37 10° SW 17:18:29 70° NW 17:24:51 10° NE
NOSS 3-4 (C) 3.6 17:12:43 10° SW 17:18:36 71° NW 17:24:57 10° NE
Cosmos 972 4.4 17:13:18 10° NNW 17:18:46 74° ENE 17:23:44 10° SSE
Cosmos 2227 Rocket 3.6 17:19:14 10° WSW 17:24:25 36° NW 17:29:39 10° NNE
Cosmos 1606 Rocket 3.9 17:22:44 10° N 17:26:51 40° ENE 17:31:00 10° SE
YAOGAN 1 3.5 17:23:34 10° ESE 17:27:09 26° ENE 17:30:45 10° N
Cosmos 1674 3.5 17:25:34 10° SSW 17:29:18 53° WNW 17:33:05 10° N
H-2A R/B 2.4 17:25:41 10° N 17:30:10 73° WNW 17:34:34 10° SSW
SMAP 4.0 17:26:12 10° S 17:30:43 51° W 17:35:17 10° NNW
USA 267 4.4 17:26:52 14° E 17:30:58 24° SE 17:36:04 10° S
Cosmos 1400 Rocket 3.8 17:29:04 10° NNW 17:33:05 51° W 17:37:03 10° S
COSMOS 2455 4.1 17:29:00 10° SSE 17:33:22 21° ESE 17:35:43 17° ENE
BREEZE-M DEB (TANK) 4.0 17:31:33 10° W 17:34:02 24° SSW 17:36:47 10° SSE
ERS-2 3.0 17:33:33 17° NE 17:35:40 29° E 17:38:53 10° SSE
Meteor 2-5 Rocket 3.7 17:30:10 10° S 17:35:42 64° E 17:41:11 10° NNE
Cosmos 773 Rocket 4.2 17:30:45 10° NNW 17:35:44 46° ENE 17:40:40 10° SE
ATLAS 2AS CENTAUR R/B 3.2 17:28:06 10° SW 17:36:04 77° NW 17:43:51 10° NE
CZ-4B R/B 4.0 17:32:14 10° S 17:37:38 55° W 17:43:09 10° NNW
SKYMED 2 3.7 17:33:40 10° NNE 17:37:56 52° E 17:42:10 10° S
CREW DRAGON DEMO-1 DEB 3.6 17:35:48 10° WNW 17:38:31 36° N 17:39:43 24° NE
CZ-2D R/B 3.2 17:35:23 10° SSE 17:39:11 58° ENE 17:42:59 10° N
SL-14 R/B 3.1 17:35:31 10° S 17:39:20 70° E 17:43:14 10° NNE
H-2A R/B 4.4 17:36:42 10° SSW 17:40:15 32° W 17:43:56 10° NNW
Cosmos 1844 Rocket 4.3 17:38:37 10° SE 17:41:14 15° ESE 17:41:14 15° ESE
YAOGAN 3 4.5 17:37:47 10° SSE 17:42:08 80° ENE 17:46:32 10° NNW
CZ-4 R/B 4.4 17:41:20 10° SSE 17:45:24 62° ENE 17:49:31 10° N
Cosmos 1603 3.7 17:40:24 10° NNW 17:46:08 87° ENE 17:51:53 10° SSE
Lacrosse 5 2.8 17:42:27 10° NW 17:47:02 33° NNE 17:49:20 23° ENE
Cosmos 2058 Rocket 3.6 17:45:03 10° N 17:49:11 35° ENE 17:53:18 10° SE
Cosmos 2297 Rocket 4.2 17:45:32 10° W 17:49:53 22° NW 17:54:14 10° N
Cosmos 1689 Rocket 3.7 17:52:38 20° SE 17:52:38 20° SE 17:53:56 10° SSE
Cosmos 1939 Rocket 3.3 17:47:53 10° S 17:52:00 68° W 17:56:07 10° NNW
Okean 1-7 Rocket 4.5 17:48:38 10° SSE 17:52:28 28° E 17:53:16 26° ENE
CZ-4 R/B 1.4 17:51:56 10° SSE 17:55:59 55° ENE 17:59:59 10° N
Cosmos 1538 Rocket 4.3 17:51:15 10° N 17:56:09 41° ENE 18:00:15 14° SE
Cosmos 2228 2.9 17:52:00 10° N 17:56:17 88° E 18:00:33 10° S
Abrixas rocket 3.5 17:55:36 10° W 17:57:58 28° SSW 17:59:22 17° SSE
IRS-1C Rocket 4.0 17:53:37 10° SSE 17:58:52 82° ENE 18:04:09 10° NNW
CZ-4B R/B 1.6 17:56:11 10° N 17:59:36 70° WNW 18:02:56 10° SSW
Cosmos 1354 Rocket 4.1 18:00:01 10° SSW 18:05:20 81° WNW 18:10:27 11° NNE
CSL-04 Rocket 3.9 18:01:39 10° SE 18:06:42 44° ENE 18:11:51 10° N
USA 234 3.6 18:03:34 25° E 18:07:07 49° NNE 18:13:22 10° NW
Cosmos 1777 Rocket 4.2 18:02:06 10° S 18:07:07 48° ESE 18:09:36 28° NE
Cosmos 2279 Rocket 4.1 18:05:32 10° N 18:11:51 83° W 18:18:06 10° S
Cosmos 1626 3.7 18:08:31 10° SW 18:11:56 34° WNW 18:15:21 10° N
CZ-2C R/B 3.3 18:09:20 10° S 18:14:29 75° WSW 18:20:00 10° NNW
Cosmos 1315 Rocket 3.7 18:11:15 10° NNW 18:15:06 51° W 18:18:57 10° S
Cosmos 1726 Rocket 3.5 18:11:11 10° N 18:15:34 83° W 18:19:55 10° S
Okean-O 2.5 18:12:01 10° SSE 18:16:27 82° ENE 18:20:55 10° NNW
ATLAS 5 CENTAUR R/B 1.4 18:13:40 10° SW 18:17:41 82° NW 18:19:18 38° NE
EXPRESS MD2 3.9 18:16:23 10° WNW 18:24:21 89° S 18:25:40 47° ESE
COSMO-SKYMED 1 3.4 18:21:48 10° N 18:26:02 51° WNW 18:30:14 10° SSW
Meteor 1-24 Rocket 4.0 18:20:53 10° SSW 18:26:14 63° WNW 18:31:31 10° N
ATLAS 3B R/B 3.8 18:19:41 10° NW 18:26:18 46° WSW 18:33:07 10° S
Helios 1A Rocket 2.8 18:23:10 10° SSE 18:27:17 84° ENE 18:31:28 10° NNW
Cosmos 2263 Rocket 2.7 18:23:01 10° SW 18:28:39 60° WNW 18:33:00 17° NNE
Meteor 2-10 Rocket 3.5 18:23:05 10° N 18:28:46 86° E 18:34:09 10° SSE
CZ-4C R/B 3.5 18:32:45 10° W 18:37:34 34° NNW 18:40:59 20° NNE
SAR-Lupe-4 3.9 18:38:07 58° NW 18:38:29 62° WNW 18:42:01 10° SSW
H-2A R/B 2.2 18:36:54 10° S 18:41:50 70° WSW 18:46:53 10° NNW
DMSP B5D1-3 4.3 18:40:51 36° NNE 18:43:02 82° ESE 18:48:08 10° SSW
Meteor 1-21 Rocket 4.3 18:37:52 10° S 18:42:38 52° ESE 18:42:38 52° ESE
MOS 1 Rocket 4.2 18:42:43 10° N 18:46:54 43° WNW 18:50:56 10° SW
Cosmos 489 Rocket 4.4 18:42:36 10° NNW 18:48:59 69° ENE 18:50:50 47° SE
Cosmos 1092 Rocket 4.0 18:44:27 10° SSE 18:49:56 54° ESE 18:49:56 54° ESE
CSL-04 Debris 4.2 18:45:09 10° SSE 18:50:33 80° WSW 18:55:59 10° NNW
NOSS 3-1 (C) 4.3 18:45:01 10° NW 18:51:47 43° NE 18:52:34 42° NE
RESURS DK-1 4.4 18:48:22 10° WSW 18:51:50 25° NW 18:53:26 20° NNW
ARGOS 3.1 18:46:48 10° SSE 18:52:09 81° WSW 18:57:34 10° NNW
Cosmos 2082 Rocket 4.4 18:50:59 10° N 18:51:47 12° N 18:51:47 12° N
APEX 4.5 18:49:29 10° SSW 18:56:31 71° ESE 18:57:46 58° ENE
CZ-2C R/B 3.1 19:02:14 50° SSE 19:02:14 50° SSE 19:06:26 10° S
YAOGAN 1 4.1 18:59:09 10° SSW 19:03:07 35° W 19:07:07 10° NNW
USA 229 4.4 18:59:50 10° NW 19:06:12 39° NNE 19:06:12 39° NNE
USA 229 DEB 4.4 18:59:49 10° NW 19:06:13 39° NNE 19:06:13 39° NNE
ERS-2 4.4 19:08:07 20° NW 19:09:05 22° WNW 19:11:57 10° WSW
Nadezhda 4 Rocket 4.3 19:06:00 10° SSW 19:12:14 66° WNW 19:18:27 10° N
USA 267 3.1 19:14:14 74° ESE 19:14:40 78° SE 19:21:13 10° SW
COSMOS 2455 2.8 19:12:38 10° SW 19:18:40 76° NW 19:18:55 75° NNW
Cosmos 1844 Rocket 3.3 19:19:03 10° SSW 19:22:59 47° SSW 19:22:59 47° SSW
ATLAS 2AS CENTAUR R/B 4.3 19:21:22 10° W 19:28:17 32° NNW 19:31:18 24° NNE
USA 281 4.3 19:32:49 31° N 19:32:49 31° N 19:36:19 10° NNW
Lacrosse 5 3.1 19:25:29 10° NW 19:28:33 37° NW 19:28:33 37° NW
CZ-4 R/B 4.4 19:28:52 10° SW 19:31:19 15° W 19:33:46 10° NW
SJ 16-02 3.9 19:29:23 10° SSW 19:29:57 13° SSW 19:29:57 13° SSW
Cosmos 2344 4.2 19:25:35 10° NW 19:34:36 67° NE 19:35:58 62° E
USA 234 3.5 19:50:55 65° WNW 19:50:55 65° WNW 19:56:30 10° NW
ATLAS 5 CENTAUR R/B 4.4 19:59:55 10° WNW 20:00:52 14° WNW 20:00:52 14° WNW
